Showing default

SKYSAT C4, 41771

Orbit data source: Space-Track

SKYSAT C4, 41771 is a payload satellite owned by Terra Bella (US) in SSO that was launched on Fri, 16 Sep 2016 UTC via a VEGA launch vehicle from the French Guiana (FRGUI). Payload-class satellites include a variety of spacecraft equipped with specific instruments for various scientific and technological missions. These include communications satellites like Starlink; space stations such as the ISS; scientific satellites like the Hubble; Earth observation satellites from companies like Planet Labs, Umbra, and HawkEye 360; GPS; miniature CubeSats for education and research; and military/defense satellites.

Loading next visibility...
Identifier
41771, 2016-058B
Orbit
SSO
Country
Flag of USUS
Related business
Manufacturer
SS/Loral (MDA)
Mission
Operational Commercial Imaging
Bus & Motor
SKYSAT-GEN2, Unknown motor
Mass
110 kg wet, 110 kg dry
Launch date (UTC)
2016-09-16 (9 years ago)
Launch vehicle
VEGA
Launch site
French Guiana (FRGUI)
Object type
Payload
Rocket body
Debris
Shape & HBR
Box, 1.0 m
Radar Cross Section
0.888 m², Medium (>0.1 m² and < 1m²)

Expand to show TLE details & history
Last TLE update: 22 hours ago

TLE from 22 hours ago
0 SKYSAT C4
1 41771U 16058B   25349.52259680  .00010328  00000-0  24142-3 0  9990
2 41771  96.9376  14.5751 0001754 133.0259 227.1136 15.42334292517106
Epoch: 2025-12-15T12:32Z
TLE epoch observation values (Epoch: 2025-12-15T12:32:32.363Z)
Latitude
-0.00009°
Longitude
102.02032°
Altitude
443.17 km
Speed
7.646 km/s
True Right ascension
00h 58m 18s
True Declination
0° 00' 00"
Sunlit
Object was in daylight at epoch
Visualization orbit readout
Latitude
Unknown
Longitude
Unknown
Altitude
Unknown
Speed
Unknown
Apparent Right ascension
Unknown
Apparent Declination
Unknown
Sunlit
N/A
Visualization observer readout
Local Sidereal Time
09:40:53
Azimuth
Unknown
Elevation
Unknown
Doppler factor
Unknown
Orbital elements
Apogee altitude
437.334 km
Perigee altitude
434.943 km
Semi-major axis
6,814.276 km
Eccentricity
0.00018
Inclination
96.9376°
RAAN
14.5751°
Arg. of periapsis
133.0259°
True anomaly
227.09888°
Mean anomaly
227.1136°
Eccentric anomaly
227.10624°
Mean motion
3.85846 °/min
Orbital period
93.3 mins
BSTAR
0.00024142
Loading maneuver chart data...
Computing Atmospheric mass density...
Loading historical data...
Loading historical data...
Loading historical data...
Loading historical data...
Loading historical data...
Loading historical data...
Loading historical data...

Documentation

Showing up to 5 results
|